| time (UTC) | temp F | wind direction | speed MPH | gust MPH | rain 1hr in | rain 24hr in | rain mn in | humidity % | barometer mb |
| 20260505230544 | 57 | 268 | 3.0 | 3.0 | 0.00 | 0.02 | 0.02 | 72 | 1007.5 |
| 20260505230040 | 58 | 267 | 4.0 | 5.0 | 0.00 | 0.02 | 0.02 | 71 | 1007.4 |
| 20260505225537 | 58 | 157 | 2.0 | 2.0 | 0.00 | 0.02 | 0.02 | 72 | 1007.4 |
| 20260505225033 | 59 | 316 | 3.0 | 3.0 | 0.00 | 0.02 | 0.02 | 72 | 1007.3 |
| 20260505224531 | 60 | 294 | 4.0 | 7.0 | 0.00 | 0.02 | 0.02 | 74 | 1007.0 |
| 20260505224028 | 60 | 115 | 1.0 | 2.0 | 0.00 | 0.02 | 0.02 | 75 | 1006.9 |
| 20260505223525 | 60 | 36 | 0.0 | 1.0 | 0.00 | 0.02 | 0.02 | 77 | 1006.7 |
| 20260505223021 | 60 | 226 | 1.0 | 2.0 | 0.00 | 0.02 | 0.02 | 77 | 1006.6 |
| 20260505222517 | 60 | 91 | 2.0 | 3.0 | 0.00 | 0.02 | 0.02 | 76 | 1006.5 |
| 20260505222013 | 61 | 156 | 2.0 | 2.0 | 0.00 | 0.02 | 0.02 | 78 | 1006.6 |
| 20260505221511 | 61 | 155 | 1.0 | 1.0 | 0.00 | 0.02 | 0.02 | 78 | 1006.3 |
| 20260505221008 | 62 | 122 | 0.0 | 1.0 | 0.00 | 0.02 | 0.02 | 77 | 1005.8 |
| 20260505220504 | 62 | 98 | 1.0 | 1.0 | 0.00 | 0.02 | 0.02 | 78 | 1005.9 |
| 20260505220002 | 62 | 166 | 0.0 | 1.0 | 0.00 | 0.02 | 0.02 | 78 | 1006.0 |
| 20260505215500 | 63 | 135 | 1.0 | 1.0 | 0.00 | 0.02 | 0.02 | 76 | 1005.9 |
| 20260505214958 | 64 | 128 | 2.0 | 2.0 | 0.00 | 0.02 | 0.02 | 79 | 1005.9 |
| 20260505214456 | 63 | 186 | 2.0 | 2.0 | 0.00 | 0.02 | 0.02 | 82 | 1005.8 |
| 20260505213952 | 63 | 158 | 1.0 | 1.0 | 0.00 | 0.02 | 0.02 | 86 | 1005.7 |
| 20260505213450 | 62 | 166 | 0.0 | 0.0 | 0.00 | 0.02 | 0.02 | 87 | 1005.8 |
| 20260505212946 | 62 | 180 | 1.0 | 2.0 | 0.00 | 0.02 | 0.02 | 87 | 1005.7 |
| 20260505212443 | 62 | 181 | 1.0 | 2.0 | 0.00 | 0.02 | 0.02 | 87 | 1005.6 |
| 20260505211939 | 62 | 176 | 1.0 | 2.0 | 0.00 | 0.02 | 0.02 | 88 | 1005.5 |
| 20260505211437 | 62 | 188 | 1.0 | 1.0 | 0.00 | 0.02 | 0.02 | 88 | 1005.6 |
| 20260505210933 | 61 | 190 | 2.0 | 2.0 | 0.00 | 0.02 | 0.02 | 87 | 1005.5 |
| 20260505210431 | 61 | 196 | 2.0 | 2.0 | 0.00 | 0.02 | 0.02 | 89 | 1005.7 |
| 20260505205927 | 61 | 179 | 1.0 | 1.0 | 0.00 | 0.02 | 0.02 | 88 | 1005.5 |
| 20260505205426 | 62 | 177 | 0.0 | 1.0 | 0.00 | 0.02 | 0.02 | 87 | 1005.5 |
| 20260505204922 | 62 | 168 | 1.0 | 1.0 | 0.00 | 0.02 | 0.02 | 86 | 1005.3 |
| 20260505204420 | 63 | 206 | 1.0 | 2.0 | 0.00 | 0.02 | 0.02 | 85 | 1005.4 |
| 20260505203917 | 63 | 169 | 0.0 | 1.0 | 0.00 | 0.02 | 0.02 | 83 | 1005.3 |
| 20260505203414 | 64 | 188 | 1.0 | 2.0 | 0.00 | 0.02 | 0.02 | 82 | 1005.4 |
| 20260505202910 | 66 | 214 | 3.0 | 3.0 | 0.00 | 0.02 | 0.02 | 78 | 1005.2 |
| 20260505202406 | 67 | 187 | 1.0 | 1.0 | 0.00 | 0.02 | 0.02 | 73 | 1004.9 |
| 20260505201903 | 67 | 175 | 1.0 | 1.0 | 0.00 | 0.02 | 0.02 | 73 | 1004.8 |
| 20260505201400 | 67 | 189 | 1.0 | 2.0 | 0.00 | 0.02 | 0.02 | 74 | 1005.1 |
| 20260505200858 | 67 | 189 | 1.0 | 1.0 | 0.00 | 0.02 | 0.02 | 74 | 1005.2 |
| 20260505200355 | 67 | 192 | 2.0 | 2.0 | 0.00 | 0.02 | 0.02 | 73 | 1005.0 |
| 20260505195850 | 67 | 196 | 2.0 | 2.0 | 0.00 | 0.02 | 0.02 | 73 | 1005.0 |
| 20260505195348 | 67 | 212 | 2.0 | 2.0 | 0.00 | 0.02 | 0.02 | 72 | 1005.2 |
| 20260505194845 | 66 | 213 | 3.0 | 3.0 | 0.00 | 0.02 | 0.02 | 74 | 1005.1 |
| 20260505194342 | 66 | 213 | 2.0 | 2.0 | 0.00 | 0.02 | 0.02 | 74 | 1005.4 |
| 20260505193837 | 66 | 242 | 4.0 | 5.0 | 0.00 | 0.02 | 0.02 | 74 | 1005.2 |
| 20260505193336 | 66 | 226 | 3.0 | 5.0 | 0.00 | 0.02 | 0.02 | 75 | 1005.1 |
| 20260505192833 | 65 | 203 | 3.0 | 3.0 | 0.00 | 0.02 | 0.02 | 81 | 1005.3 |
| 20260505192331 | 65 | 171 | 1.0 | 1.0 | 0.00 | 0.02 | 0.02 | 81 | 1005.5 |
| 20260505191828 | 65 | 159 | 0.0 | 0.0 | 0.00 | 0.02 | 0.02 | 82 | 1005.2 |
| 20260505191327 | 64 | 195 | 2.0 | 3.0 | 0.00 | 0.02 | 0.02 | 81 | 1005.2 |
| 20260505190823 | 64 | 192 | 1.0 | 2.0 | 0.00 | 0.02 | 0.02 | 82 | 1005.3 |
| 20260505190319 | 63 | 203 | 3.0 | 3.0 | 0.00 | 0.02 | 0.02 | 84 | 1005.3 |
| 20260505185815 | 62 | 212 | 3.0 | 3.0 | 0.00 | 0.02 | 0.02 | 87 | 1005.2 |
| 20260505185311 | 61 | 189 | 3.0 | 5.0 | 0.00 | 0.02 | 0.02 | 89 | 1005.2 |
| 20260505184807 | 60 | 186 | 2.0 | 2.0 | 0.00 | 0.02 | 0.02 | 90 | 1005.2 |
| 20260505184304 | 59 | 190 | 1.0 | 1.0 | 0.00 | 0.02 | 0.02 | 91 | 1005.3 |
| 20260505183801 | 59 | 167 | 1.0 | 1.0 | 0.00 | 0.02 | 0.02 | 91 | 1005.3 |
| 20260505183258 | 58 | 188 | 1.0 | 1.0 | 0.00 | 0.02 | 0.02 | 91 | 1005.5 |
| 20260505182755 | 58 | 211 | 2.0 | 2.0 | 0.00 | 0.02 | 0.02 | 90 | 1005.1 |
| 20260505182252 | 58 | 196 | 3.0 | 3.0 | 0.00 | 0.02 | 0.02 | 88 | 1005.1 |
| 20260505181748 | 59 | 220 | 6.0 | 9.0 | 0.05 | 0.02 | 0.02 | 87 | 1006.1 |
| 20260505181246 | 59 | 252 | 4.0 | 5.0 | 0.12 | 0.02 | 0.02 | 89 | 1005.6 |
| 20260505180742 | 59 | 236 | 5.0 | 6.0 | 0.07 | 0.01 | 0.01 | 88 | 1005.6 |
| 20260505180239 | 60 | 268 | 10.0 | 10.0 | 0.00 | 0.00 | 0.00 | 85 | 1005.7 |
| 20260505175735 | 62 | 247 | 5.0 | 6.0 | 0.00 | 0.00 | 0.00 | 81 | 1005.4 |
| 20260505175232 | 62 | 250 | 5.0 | 6.0 | 0.00 | 0.00 | 0.00 | 81 | 1004.9 |
| 20260505174728 | 64 | 255 | 4.0 | 5.0 | 0.00 | 0.00 | 0.00 | 77 | 1005.1 |
| 20260505174226 | 64 | 231 | 3.0 | 3.0 | 0.00 | 0.00 | 0.00 | 74 | 1004.6 |
| 20260505173721 | 63 | 213 | 3.0 | 3.0 | 0.00 | 0.00 | 0.00 | 76 | 1004.4 |
| 20260505173218 | 62 | 223 | 3.0 | 3.0 | 0.00 | 0.00 | 0.00 | 77 | 1004.7 |
| 20260505172715 | 62 | 215 | 3.0 | 5.0 | 0.00 | 0.00 | 0.00 | 79 | 1004.6 |
| 20260505172213 | 62 | 230 | 4.0 | 5.0 | 0.00 | 0.00 | 0.00 | 79 | 1004.8 |
| 20260505171712 | 64 | 234 | 9.0 | 10.0 | 0.00 | 0.00 | 0.00 | 78 | 1004.9 |
| 20260505171210 | 69 | 229 | 5.0 | 5.0 | 0.00 | 0.00 | 0.00 | 65 | 1004.8 |
| 20260505170706 | 69 | 218 | 5.0 | 6.0 | 0.00 | 0.00 | 0.00 | 57 | 1004.6 |
| 20260505170203 | 70 | 234 | 3.0 | 5.0 | 0.00 | 0.00 | 0.00 | 57 | 1004.5 |
| 20260505165658 | 70 | 222 | 5.0 | 6.0 | 0.00 | 0.00 | 0.00 | 57 | 1004.5 |
| 20260505165154 | 70 | 213 | 4.0 | 6.0 | 0.00 | 0.00 | 0.00 | 56 | 1004.4 |
| 20260505164650 | 70 | 216 | 3.0 | 3.0 | 0.00 | 0.00 | 0.00 | 56 | 1004.5 |
| 20260505164147 | 71 | 214 | 5.0 | 6.0 | 0.00 | 0.00 | 0.00 | 57 | 1004.5 |
| 20260505163645 | 71 | 216 | 5.0 | 6.0 | 0.00 | 0.00 | 0.00 | 58 | 1004.0 |
| 20260505163143 | 70 | 204 | 3.0 | 5.0 | 0.00 | 0.00 | 0.00 | 57 | 1004.1 |
| 20260505162640 | 70 | 227 | 5.0 | 7.0 | 0.00 | 0.00 | 0.00 | 57 | 1004.1 |
| 20260505162138 | 70 | 206 | 3.0 | 3.0 | 0.00 | 0.00 | 0.00 | 57 | 1004.1 |
| 20260505161635 | 70 | 220 | 3.0 | 3.0 | 0.00 | 0.00 | 0.00 | 57 | 1004.0 |
| 20260505161132 | 70 | 224 | 3.0 | 3.0 | 0.00 | 0.00 | 0.00 | 57 | 1004.0 |
| 20260505160630 | 70 | 221 | 3.0 | 3.0 | 0.00 | 0.00 | 0.00 | 58 | 1003.8 |
| 20260505160127 | 70 | 206 | 4.0 | 5.0 | 0.00 | 0.00 | 0.00 | 59 | 1004.0 |
| 20260505153107 | 70 | 202 | 2.0 | 3.0 | 0.00 | 0.00 | 0.00 | 59 | 1004.5 |
| 20260505152603 | 70 | 233 | 5.0 | 6.0 | 0.00 | 0.00 | 0.00 | 57 | 1004.4 |
| 20260505152059 | 70 | 219 | 5.0 | 6.0 | 0.00 | 0.00 | 0.00 | 58 | 1004.4 |
| 20260505151554 | 70 | 206 | 7.0 | 8.0 | 0.00 | 0.00 | 0.00 | 57 | 1004.6 |
| 20260505151052 | 70 | 204 | 3.0 | 3.0 | 0.00 | 0.00 | 0.00 | 60 | 1004.5 |
| 20260505150548 | 70 | 218 | 6.0 | 8.0 | 0.00 | 0.00 | 0.00 | 57 | 1004.2 |
| 20260505140513 | 69 | 199 | 2.0 | 2.0 | 0.00 | 0.00 | 0.00 | 61 | 1004.0 |
| 20260505124926 | 66 | 204 | 3.0 | 5.0 | 0.00 | 0.00 | 0.00 | 64 | 1004.4 |
| 20260505124423 | 66 | 212 | 5.0 | 7.0 | 0.00 | 0.00 | 0.00 | 64 | 1004.2 |
| 20260505123919 | 65 | 182 | 5.0 | 6.0 | 0.00 | 0.00 | 0.00 | 64 | 1004.4 |
| 20260505123416 | 65 | 207 | 2.0 | 2.0 | 0.00 | 0.00 | 0.00 | 65 | 1004.4 |
| 20260505122912 | 65 | 211 | 3.0 | 3.0 | 0.00 | 0.00 | 0.00 | 67 | 1004.4 |
| 20260505122410 | 64 | 194 | 3.0 | 5.0 | 0.00 | 0.00 | 0.00 | 67 | 1004.3 |
| 20260505121906 | 64 | 214 | 3.0 | 3.0 | 0.00 | 0.00 | 0.00 | 67 | 1004.3 |
| 20260505121403 | 64 | 192 | 1.0 | 2.0 | 0.00 | 0.00 | 0.00 | 67 | 1004.4 |
| 20260505120859 | 64 | 221 | 1.0 | 2.0 | 0.00 | 0.00 | 0.00 | 67 | 1004.5 |
| 20260505120356 | 64 | 222 | 5.0 | 8.0 | 0.00 | 0.00 | 0.00 | 68 | 1004.4 |
| 20260505115854 | 64 | 199 | 4.0 | 5.0 | 0.00 | 0.00 | 0.00 | 67 | 1004.5 |
| 20260505115352 | 64 | 214 | 2.0 | 3.0 | 0.00 | 0.00 | 0.00 | 67 | 1004.0 |
| 20260505114849 | 64 | 180 | 1.0 | 1.0 | 0.00 | 0.00 | 0.00 | 67 | 1004.4 |
| 20260505114345 | 64 | 193 | 2.0 | 2.0 | 0.00 | 0.00 | 0.00 | 67 | 1004.2 |
| 20260505113842 | 64 | 210 | 3.0 | 3.0 | 0.00 | 0.00 | 0.00 | 67 | 1004.1 |
| 20260505113339 | 63 | 202 | 5.0 | 7.0 | 0.00 | 0.00 | 0.00 | 66 | 1004.2 |
| 20260505112834 | 63 | 229 | 4.0 | 6.0 | 0.00 | 0.00 | 0.00 | 67 | 1004.1 |
| 20260505112332 | 63 | 192 | 3.0 | 3.0 | 0.00 | 0.00 | 0.00 | 67 | 1004.0 |
| 20260505111827 | 62 | 202 | 4.0 | 5.0 | 0.00 | 0.00 | 0.00 | 67 | 1004.1 |
| 20260505111323 | 62 | 201 | 3.0 | 3.0 | 0.00 | 0.00 | 0.00 | 68 | 1004.0 |
| 20260505110819 | 61 | 187 | 3.0 | 3.0 | 0.00 | 0.00 | 0.00 | 69 | 1004.2 |
| 20260505110317 | 61 | 205 | 2.0 | 2.0 | 0.00 | 0.00 | 0.00 | 70 | 1003.9 |
| 20260505101751 | 62 | 187 | 1.0 | 1.0 | 0.00 | 0.00 | 0.00 | 69 | 1003.5 |
| 20260505101247 | 62 | 189 | 3.0 | 3.0 | 0.00 | 0.00 | 0.00 | 69 | 1003.6 |
| 20260505100743 | 62 | 182 | 2.0 | 2.0 | 0.00 | 0.00 | 0.00 | 69 | 1003.4 |
| 20260505100240 | 62 | 188 | 2.0 | 2.0 | 0.00 | 0.00 | 0.00 | 69 | 1003.3 |
| 20260505095735 | 62 | 193 | 2.0 | 2.0 | 0.00 | 0.00 | 0.00 | 70 | 1003.3 |
| 20260505095234 | 61 | 204 | 3.0 | 3.0 | 0.00 | 0.00 | 0.00 | 70 | 1003.6 |
| 20260505094729 | 61 | 202 | 3.0 | 3.0 | 0.00 | 0.00 | 0.00 | 70 | 1003.3 |
| 20260505094226 | 61 | 204 | 2.0 | 3.0 | 0.00 | 0.00 | 0.00 | 71 | 1003.5 |
| 20260505093722 | 60 | 175 | 3.0 | 5.0 | 0.00 | 0.00 | 0.00 | 72 | 1003.6 |
| 20260505093220 | 60 | 202 | 2.0 | 2.0 | 0.00 | 0.00 | 0.00 | 74 | 1003.5 |
| 20260505092716 | 58 | 215 | 2.0 | 3.0 | 0.00 | 0.00 | 0.00 | 77 | 1003.4 |
| 20260505092215 | 57 | 184 | 1.0 | 1.0 | 0.00 | 0.00 | 0.00 | 82 | 1003.5 |
| 20260505091712 | 56 | 153 | 0.0 | 0.0 | 0.00 | 0.00 | 0.00 | 85 | 1003.8 |
| 20260505091210 | 56 | 164 | 0.0 | 0.0 | 0.00 | 0.00 | 0.00 | 86 | 1003.6 |
| 20260505090707 | 56 | 161 | 0.0 | 0.0 | 0.00 | 0.00 | 0.00 | 86 | 1003.6 |
| 20260505090205 | 56 | 165 | 0.0 | 0.0 | 0.00 | 0.00 | 0.00 | 87 | 1003.5 |
| 20260505085702 | 56 | 151 | 0.0 | 0.0 | 0.00 | 0.00 | 0.00 | 87 | 1003.6 |
| 20260505085201 | 56 | 159 | 0.0 | 0.0 | 0.00 | 0.00 | 0.00 | 88 | 1003.5 |
| 20260505084658 | 56 | 156 | 0.0 | 0.0 | 0.00 | 0.00 | 0.00 | 88 | 1003.5 |
| 20260505084156 | 56 | 154 | 0.0 | 0.0 | 0.00 | 0.00 | 0.00 | 87 | 1003.4 |
| 20260505083653 | 56 | 159 | 0.0 | 0.0 | 0.00 | 0.00 | 0.00 | 87 | 1003.5 |
| 20260505083150 | 57 | 159 | 0.0 | 0.0 | 0.00 | 0.00 | 0.00 | 86 | 1003.5 |
| 20260505082645 | 57 | 171 | 0.0 | 0.0 | 0.00 | 0.00 | 0.00 | 85 | 1003.4 |
| 20260505082143 | 57 | 180 | 1.0 | 1.0 | 0.00 | 0.00 | 0.00 | 84 | 1003.8 |
| 20260505081639 | 57 | 195 | 2.0 | 2.0 | 0.00 | 0.00 | 0.00 | 84 | 1004.1 |
| 20260505081137 | 57 | 186 | 1.0 | 1.0 | 0.00 | 0.00 | 0.00 | 84 | 1004.4 |
| 20260505080633 | 58 | 184 | 1.0 | 1.0 | 0.00 | 0.00 | 0.00 | 83 | 1004.0 |
| 20260505080129 | 58 | 197 | 2.0 | 2.0 | 0.00 | 0.00 | 0.00 | 81 | 1004.3 |
| 20260505075625 | 59 | 225 | 4.0 | 5.0 | 0.00 | 0.00 | 0.00 | 80 | 1004.5 |
| 20260505075122 | 60 | 206 | 4.0 | 5.0 | 0.00 | 0.00 | 0.00 | 78 | 1004.4 |
| 20260505074619 | 62 | 214 | 3.0 | 3.0 | 0.00 | 0.00 | 0.00 | 66 | 1004.3 |
| 20260505074116 | 61 | 199 | 2.0 | 2.0 | 0.00 | 0.00 | 0.00 | 66 | 1004.4 |
| 20260505073614 | 61 | 191 | 2.0 | 2.0 | 0.00 | 0.00 | 0.00 | 66 | 1004.0 |
| 20260505073112 | 61 | 185 | 1.0 | 2.0 | 0.00 | 0.00 | 0.00 | 67 | 1004.2 |
| 20260505072607 | 60 | 189 | 1.0 | 1.0 | 0.00 | 0.00 | 0.00 | 68 | 1004.2 |
| 20260505072104 | 60 | 169 | 1.0 | 1.0 | 0.00 | 0.00 | 0.00 | 70 | 1003.9 |
| 20260505071559 | 60 | 192 | 2.0 | 3.0 | 0.00 | 0.00 | 0.00 | 71 | 1003.9 |
| 20260505071057 | 60 | 189 | 1.0 | 2.0 | 0.00 | 0.00 | 0.00 | 71 | 1004.1 |
| 20260505070554 | 60 | 195 | 2.0 | 2.0 | 0.00 | 0.00 | 0.00 | 72 | 1004.1 |
| 20260505070050 | 59 | 171 | 0.0 | 1.0 | 0.00 | 0.00 | 0.00 | 74 | 1004.3 |
| 20260505065546 | 59 | 169 | 0.0 | 0.0 | 0.00 | 0.00 | 0.00 | 76 | 1004.4 |
| 20260505065043 | 60 | 182 | 1.0 | 1.0 | 0.00 | 0.00 | 0.00 | 75 | 1004.3 |
| 20260505064540 | 59 | 208 | 2.0 | 3.0 | 0.00 | 0.00 | 0.00 | 75 | 1004.3 |
| 20260505064039 | 59 | 169 | 0.0 | 1.0 | 0.00 | 0.00 | 0.00 | 76 | 1004.1 |
| 20260505063536 | 59 | 191 | 1.0 | 2.0 | 0.00 | 0.00 | 0.00 | 76 | 1003.9 |
| 20260505063031 | 59 | 178 | 1.0 | 1.0 | 0.00 | 0.00 | 0.00 | 76 | 1004.0 |
| 20260505062528 | 59 | 187 | 1.0 | 2.0 | 0.00 | 0.00 | 0.00 | 77 | 1003.9 |
| 20260505062026 | 59 | 184 | 1.0 | 2.0 | 0.00 | 0.00 | 0.00 | 78 | 1003.8 |
| 20260505061523 | 59 | 214 | 4.0 | 5.0 | 0.00 | 0.00 | 0.00 | 77 | 1004.0 |
| 20260505061021 | 60 | 192 | 6.0 | 7.0 | 0.00 | 0.00 | 0.00 | 75 | 1004.2 |
| 20260505060518 | 60 | 229 | 5.0 | 6.0 | 0.00 | 0.00 | 0.00 | 73 | 1004.4 |
| 20260505060015 | 61 | 183 | 4.0 | 6.0 | 0.00 | 0.00 | 0.00 | 69 | 1004.2 |
| 20260505055510 | 61 | 204 | 4.0 | 5.0 | 0.00 | 0.00 | 0.00 | 67 | 1004.2 |
| 20260505055007 | 62 | 217 | 4.0 | 6.0 | 0.00 | 0.00 | 0.00 | 65 | 1004.2 |
| 20260505054504 | 62 | 206 | 4.0 | 5.0 | 0.00 | 0.00 | 0.00 | 63 | 1004.0 |
| 20260505054002 | 62 | 207 | 3.0 | 3.0 | 0.00 | 0.00 | 0.00 | 62 | 1004.0 |
| 20260505053459 | 62 | 227 | 3.0 | 3.0 | 0.00 | 0.00 | 0.00 | 62 | 1004.0 |
| 20260505052955 | 62 | 191 | 3.0 | 3.0 | 0.00 | 0.00 | 0.00 | 61 | 1004.1 |
| 20260505052453 | 63 | 226 | 3.0 | 3.0 | 0.00 | 0.00 | 0.00 | 57 | 1004.4 |
| 20260505051950 | 63 | 209 | 4.0 | 5.0 | 0.00 | 0.00 | 0.00 | 55 | 1004.1 |
| 20260505051447 | 63 | 205 | 3.0 | 3.0 | 0.00 | 0.00 | 0.00 | 54 | 1004.3 |
| 20260505050945 | 63 | 194 | 3.0 | 3.0 | 0.00 | 0.00 | 0.00 | 54 | 1004.4 |
| 20260505050443 | 63 | 188 | 2.0 | 3.0 | 0.00 | 0.00 | 0.00 | 54 | 1004.4 |
| 20260505041411 | 61 | 201 | 1.0 | 2.0 | 0.00 | 0.00 | 0.00 | 54 | 1004.0 |
| 20260505040908 | 61 | 148 | 0.0 | 1.0 | 0.00 | 0.00 | 0.00 | 56 | 1004.0 |
| 20260505040405 | 62 | 180 | 1.0 | 1.0 | 0.00 | 0.00 | 0.00 | 53 | 1004.3 |
| 20260505035902 | 62 | 173 | 0.0 | 0.0 | 0.00 | 0.00 | 0.00 | 53 | 1003.9 |
| 20260505035357 | 62 | 190 | 1.0 | 1.0 | 0.00 | 0.00 | 0.00 | 53 | 1004.0 |
| 20260505034855 | 62 | 170 | 1.0 | 1.0 | 0.00 | 0.00 | 0.00 | 53 | 1004.1 |
| 20260505034351 | 62 | 177 | 1.0 | 1.0 | 0.00 | 0.00 | 0.00 | 52 | 1004.0 |
| 20260505033849 | 62 | 166 | 0.0 | 1.0 | 0.00 | 0.00 | 0.00 | 53 | 1003.9 |
| 20260505033345 | 62 | 174 | 0.0 | 0.0 | 0.00 | 0.00 | 0.00 | 51 | 1004.0 |
| 20260505032844 | 63 | 172 | 1.0 | 1.0 | 0.00 | 0.00 | 0.00 | 50 | 1004.1 |
| 20260505032340 | 63 | 182 | 0.0 | 0.0 | 0.00 | 0.00 | 0.00 | 50 | 1004.1 |
| 20260505031837 | 63 | 193 | 1.0 | 2.0 | 0.00 | 0.00 | 0.00 | 49 | 1004.1 |
| 20260505031333 | 63 | 196 | 2.0 | 2.0 | 0.00 | 0.00 | 0.00 | 49 | 1004.1 |
| 20260505030831 | 62 | 187 | 1.0 | 1.0 | 0.00 | 0.00 | 0.00 | 50 | 1004.1 |
| 20260505030327 | 62 | 183 | 1.0 | 2.0 | 0.00 | 0.00 | 0.00 | 51 | 1004.2 |
| 20260505025822 | 61 | 172 | 1.0 | 1.0 | 0.00 | 0.00 | 0.00 | 52 | 1004.2 |
| 20260505025320 | 60 | 171 | 1.0 | 1.0 | 0.00 | 0.00 | 0.00 | 54 | 1004.1 |
| 20260505024818 | 60 | 173 | 1.0 | 1.0 | 0.00 | 0.00 | 0.00 | 53 | 1004.1 |
| 20260505024316 | 60 | 147 | 0.0 | 0.0 | 0.00 | 0.00 | 0.00 | 55 | 1004.2 |
| 20260505023813 | 60 | 152 | 0.0 | 0.0 | 0.00 | 0.00 | 0.00 | 53 | 1004.1 |
| 20260505023309 | 60 | 180 | 1.0 | 1.0 | 0.00 | 0.00 | 0.00 | 53 | 1004.3 |
| 20260505022807 | 60 | 160 | 0.0 | 0.0 | 0.00 | 0.00 | 0.00 | 53 | 1004.2 |
| 20260505022304 | 60 | 152 | 0.0 | 0.0 | 0.00 | 0.00 | 0.00 | 53 | 1004.3 |
| 20260505021801 | 60 | 158 | 0.0 | 0.0 | 0.00 | 0.00 | 0.00 | 53 | 1004.5 |
| 20260505021257 | 60 | 149 | 0.0 | 0.0 | 0.00 | 0.00 | 0.00 | 53 | 1004.3 |
| 20260505020753 | 60 | 146 | 0.0 | 0.0 | 0.00 | 0.00 | 0.00 | 51 | 1004.2 |
| 20260505020248 | 60 | 153 | 0.0 | 0.0 | 0.00 | 0.00 | 0.00 | 51 | 1004.1 |
| 20260505015746 | 60 | 142 | 0.0 | 0.0 | 0.00 | 0.00 | 0.00 | 51 | 1004.1 |
| 20260505015243 | 61 | 142 | 0.0 | 0.0 | 0.00 | 0.00 | 0.00 | 51 | 1004.3 |
| 20260505014740 | 61 | 142 | 0.0 | 0.0 | 0.00 | 0.00 | 0.00 | 50 | 1004.1 |
| 20260505014237 | 61 | 142 | 0.0 | 0.0 | 0.00 | 0.00 | 0.00 | 50 | 1004.1 |
| 20260505013734 | 61 | 140 | 0.0 | 1.0 | 0.00 | 0.00 | 0.00 | 50 | 1004.2 |
| 20260505013231 | 61 | 142 | 0.0 | 0.0 | 0.00 | 0.00 | 0.00 | 51 | 1004.1 |
| 20260505012729 | 61 | 141 | 0.0 | 0.0 | 0.00 | 0.00 | 0.00 | 50 | 1004.2 |
| 20260505012226 | 61 | 143 | 0.0 | 0.0 | 0.00 | 0.00 | 0.00 | 50 | 1004.3 |
| 20260505011722 | 62 | 144 | 0.0 | 0.0 | 0.00 | 0.00 | 0.00 | 51 | 1004.0 |
| 20260505011219 | 62 | 145 | 0.0 | 0.0 | 0.00 | 0.00 | 0.00 | 47 | 1004.2 |
| 20260505010714 | 62 | 152 | 0.0 | 0.0 | 0.00 | 0.00 | 0.00 | 46 | 1004.2 |
| 20260505010212 | 63 | 153 | 0.0 | 0.0 | 0.00 | 0.00 | 0.00 | 46 | 1004.0 |
| 20260505005708 | 63 | 152 | 0.0 | 0.0 | 0.00 | 0.00 | 0.00 | 45 | 1004.1 |
| 20260505005205 | 63 | 152 | 0.0 | 0.0 | 0.00 | 0.00 | 0.00 | 45 | 1003.9 |
| 20260505004702 | 64 | 153 | 0.0 | 0.0 | 0.00 | 0.00 | 0.00 | 44 | 1004.0 |
| 20260505004159 | 64 | 153 | 0.0 | 0.0 | 0.00 | 0.00 | 0.00 | 44 | 1004.0 |
| 20260505003656 | 64 | 153 | 0.0 | 0.0 | 0.00 | 0.00 | 0.00 | 44 | 1004.0 |
| 20260505003153 | 64 | 153 | 0.0 | 0.0 | 0.00 | 0.00 | 0.00 | 44 | 1003.9 |
| 20260505002649 | 64 | 153 | 0.0 | 0.0 | 0.00 | 0.00 | 0.00 | 44 | 1004.1 |
| 20260505002148 | 64 | 153 | 0.0 | 0.0 | 0.00 | 0.00 | 0.00 | 43 | 1003.8 |
| 20260505001644 | 65 | 153 | 0.0 | 0.0 | 0.00 | 0.00 | 0.00 | 43 | 1003.9 |
| 20260505001142 | 65 | 153 | 0.0 | 0.0 | 0.00 | 0.00 | 0.00 | 44 | 1003.9 |
| 20260505000638 | 65 | 153 | 0.0 | 0.0 | 0.00 | 0.00 | 0.00 | 43 | 1004.1 |
| 20260505000137 | 66 | 154 | 0.0 | 0.0 | 0.00 | 0.00 | 0.00 | 42 | 1003.9 |
| 20260504235632 | 66 | 154 | 0.0 | 0.0 | 0.00 | 0.00 | 0.00 | 41 | 1004.0 |
| 20260504235129 | 66 | 154 | 0.0 | 0.0 | 0.00 | 0.00 | 0.00 | 41 | 1004.0 |
| 20260504234626 | 67 | 154 | 0.0 | 0.0 | 0.00 | 0.00 | 0.00 | 41 | 1003.8 |
| 20260504234124 | 67 | 154 | 0.0 | 0.0 | 0.00 | 0.00 | 0.00 | 40 | 1004.0 |
| 20260504233619 | 68 | 154 | 0.0 | 0.0 | 0.00 | 0.00 | 0.00 | 40 | 1003.8 |
| 20260504233115 | 69 | 168 | 0.0 | 0.0 | 0.00 | 0.00 | 0.00 | 40 | 1003.8 |
| 20260504232613 | 69 | 175 | 0.0 | 1.0 | 0.00 | 0.00 | 0.00 | 38 | 1004.0 |
| 20260504232110 | 70 | 158 | 0.0 | 0.0 | 0.00 | 0.00 | 0.00 | 39 | 1004.0 |
| 20260504231607 | 70 | 175 | 1.0 | 1.0 | 0.00 | 0.00 | 0.00 | 36 | 1003.8 |
| 20260504231103 | 70 | 175 | 0.0 | 1.0 | 0.00 | 0.00 | 0.00 | 39 | 1003.5 |